Drummond Island, MI

10:54 AM EDT on July 20, 2017 (GMT -0400)
Drummond Island

Weather History for KDRM - January, 2013

Change the Weather History Date:

Thursday, January 10, 2013

  Actual Average (KCIU) Record (KCIU)
Temperature  
Mean Temperature 32 °F -  
Max Temperature 37 °F 21 °F 39 °F (1983)
Min Temperature 27 °F 0 °F -26 °F (1981)
Degree Days  
Heating Degree Days 33    
Moisture  
Dew Point 28 °F    
Average Humidity 80    
Maximum Humidity 92    
Minimum Humidity 65    
Precipitation  
Precipitation 0.00 in - - ()
Sea Level Pressure  
Sea Level Pressure 30.39 in    
Wind  
Wind Speed 5 mph (SSE)    
Max Wind Speed 14 mph    
Max Gust Speed 23 mph    
Visibility 10 miles    
Events      
Averages and records for this station are not official NWS values.
T = Trace of Precipitation, MM = Missing Value Source: NWS Daily Summary

Daily Weather History Graph

Daily Weather History Graph

Search for Another Location

Airport or City:

Trip Planner

Search our weather history database for the weather conditions in past years. The results will help you decide how hot, cold, wet, or windy it might be!

Date:

Astronomy

Jan. 10, 2013 Rise Set
Actual Time 8:15 AM EST 5:10 PM EST
Civil Twilight 7:41 AM EST 5:44 PM EST
Nautical Twilight 7:04 AM EST 6:21 PM EST
Astronomical Twilight 6:28 AM EST 6:57 PM EST
Moon 6:53 AM EST (1/10) 4:17 PM EST (1/10)
Length of Visible Light 10h 02m
Length of Day
8h 55m
Waning Crescent, 2% of the Moon is Illuminated
Jan 10
Waning Crescent
Jan 11
New
Jan 18
First Quarter
Jan 26
Full
Feb 3
Last Quarter

Hourly Weather History & Observations

Time (EST) Temp. Windchill Dew Point Humidity Pressure Visibility Wind Dir Wind Speed Gust Speed Precip Events Conditions
12:16 AM 35.2 °F 30.3 °F 26.2 °F 70% 30.34 in 10.0 mi West 5.8 mph - N/A   Overcast
12:35 AM 34.7 °F 30.6 °F 26.2 °F 71% 30.35 in 10.0 mi West 4.6 mph - N/A   Overcast
12:55 AM 34.9 °F 29.0 °F 25.9 °F 70% 30.36 in 10.0 mi West 6.9 mph - N/A   Overcast
1:16 AM 34.7 °F 28.8 °F 26.1 °F 71% 30.36 in 10.0 mi WNW 6.9 mph - N/A   Overcast
1:35 AM 34.2 °F 29.0 °F 25.7 °F 71% 30.36 in 10.0 mi West 5.8 mph - N/A   Overcast
1:55 AM 33.8 °F 27.7 °F 26.1 °F 73% 30.38 in 10.0 mi WNW 6.9 mph - N/A   Overcast
2:16 AM 33.8 °F 29.6 °F 26.2 °F 74% 30.38 in 10.0 mi WNW 4.6 mph - N/A   Overcast
2:35 AM 33.8 °F 29.6 °F 26.4 °F 74% 30.38 in 10.0 mi NW 4.6 mph - N/A   Overcast
2:55 AM 34.0 °F 28.0 °F 25.7 °F 72% 30.38 in 10.0 mi WNW 6.9 mph 17.3 mph N/A   Mostly Cloudy
3:16 AM 33.1 °F 25.5 °F 25.9 °F 75% 30.35 in 10.0 mi NNW 9.2 mph - N/A   Scattered Clouds
3:35 AM 33.1 °F 28.7 °F 25.9 °F 75% 30.35 in 10.0 mi NNW 4.6 mph - N/A   Clear
3:56 AM 32.7 °F 27.3 °F 25.9 °F 76% 30.36 in 10.0 mi NNW 5.8 mph - N/A   Clear
4:15 AM 32.5 °F 28.1 °F 25.5 °F 75% 30.38 in 10.0 mi NW 4.6 mph - N/A   Clear
4:35 AM 32.0 °F - 25.2 °F 76% 30.38 in 10.0 mi Calm Calm - N/A   Clear
4:56 AM 28.8 °F 25.0 °F 23.9 °F 82% 30.40 in 10.0 mi SW 3.5 mph - N/A   Clear
5:15 AM 28.4 °F - 24.4 °F 85% 30.42 in 10.0 mi Calm Calm - N/A   Clear
5:35 AM 27.7 °F - 24.1 °F 86% 30.43 in 10.0 mi Calm Calm - N/A   Clear
5:56 AM 28.9 °F 25.2 °F 24.8 °F 84% 30.45 in 10.0 mi SW 3.5 mph - N/A   Clear
6:15 AM 29.5 °F 25.9 °F 25.2 °F 84% 30.46 in 10.0 mi SW 3.5 mph - N/A   Scattered Clouds
6:35 AM 29.5 °F - 25.3 °F 85% 30.46 in 10.0 mi Calm Calm - N/A   Mostly Cloudy
6:56 AM 30.0 °F - 25.7 °F 84% 30.48 in 10.0 mi Calm Calm - N/A   Mostly Cloudy
7:15 AM 30.4 °F - 26.4 °F 85% 30.49 in 10.0 mi Calm Calm - N/A   Overcast
7:35 AM 31.3 °F - 27.3 °F 85% 30.49 in 10.0 mi Calm Calm - N/A   Overcast
7:56 AM 30.6 °F 27.1 °F 27.3 °F 88% 30.49 in 10.0 mi SW 3.5 mph - N/A   Scattered Clouds
8:55 AM 28.2 °F - 25.9 °F 91% 30.49 in 10.0 mi Calm Calm - N/A   Clear
9:15 AM 29.5 °F - 25.7 °F 86% 30.50 in 10.0 mi Calm Calm - N/A   Clear
9:36 AM 31.3 °F - 26.8 °F 83% 30.50 in 10.0 mi Calm Calm - N/A   Clear
9:55 AM 33.6 °F - 27.5 °F 78% 30.50 in 10.0 mi Calm Calm - N/A   Clear
10:16 AM 34.3 °F 31.4 °F 27.5 °F 76% 30.50 in 10.0 mi WSW 3.5 mph - N/A   Clear
10:55 AM 35.6 °F - 27.3 °F 72% 30.50 in 10.0 mi Calm Calm - N/A   Clear
11:16 AM 37.2 °F - 26.8 °F 66% 30.49 in 10.0 mi Calm Calm - N/A   Clear
11:35 AM 36.0 °F - 26.4 °F 68% 30.48 in 10.0 mi Calm Calm - N/A   Clear
11:55 AM 36.7 °F - 26.6 °F 67% 30.47 in 10.0 mi Calm Calm - N/A   Clear
12:16 PM 36.7 °F 34.1 °F 26.6 °F 67% 30.46 in 10.0 mi South 3.5 mph - N/A   Clear
12:35 PM 36.5 °F 33.9 °F 25.7 °F 65% 30.45 in 10.0 mi SSW 3.5 mph - N/A   Clear
12:55 PM 36.9 °F 32.2 °F 26.4 °F 66% 30.44 in 10.0 mi SE 5.8 mph - N/A   Clear
1:16 PM 36.7 °F 30.5 °F 27.3 °F 69% 30.43 in 10.0 mi SE 8.1 mph - N/A   Clear
1:35 PM 36.5 °F 30.3 °F 27.9 °F 71% 30.43 in 10.0 mi South 8.1 mph - N/A   Clear
1:55 PM 36.5 °F 31.0 °F 28.8 °F 74% 30.41 in 10.0 mi SE 6.9 mph - N/A   Clear
2:35 PM 36.5 °F 29.7 °F 29.1 °F 75% 30.42 in 10.0 mi SSE 9.2 mph - N/A   Clear
2:56 PM 36.5 °F 30.3 °F 29.3 °F 75% 30.42 in 10.0 mi South 8.1 mph - N/A   Clear
3:15 PM 36.5 °F 30.3 °F 29.3 °F 75% 30.42 in 10.0 mi SE 8.1 mph - N/A   Clear
3:35 PM 36.3 °F 30.8 °F 28.9 °F 75% 30.41 in 10.0 mi SE 6.9 mph - N/A   Clear
3:56 PM 35.8 °F 30.1 °F 29.7 °F 78% 30.40 in 10.0 mi SE 6.9 mph - N/A   Clear
4:15 PM 35.6 °F 29.9 °F 30.0 °F 80% 30.39 in 10.0 mi ESE 6.9 mph - N/A   Clear
4:35 PM 35.2 °F 30.3 °F 29.8 °F 81% 30.38 in 10.0 mi ESE 5.8 mph - N/A   Clear
4:56 PM 34.7 °F 30.6 °F 30.2 °F 84% 30.38 in 10.0 mi SE 4.6 mph - N/A   Clear
5:15 PM 34.5 °F 29.4 °F 30.6 °F 85% 30.36 in 10.0 mi ESE 5.8 mph - N/A   Clear
5:35 PM 34.0 °F 28.8 °F 30.9 °F 89% 30.36 in 10.0 mi ESE 5.8 mph - N/A   Clear
5:56 PM 33.8 °F 28.6 °F 31.5 °F 91% 30.36 in 10.0 mi ESE 5.8 mph - N/A   Clear
6:15 PM 34.2 °F 29.0 °F 32.0 °F 92% 30.35 in 10.0 mi ESE 5.8 mph - N/A   Clear
6:35 PM 34.7 °F 29.6 °F 32.0 °F 90% 30.36 in 10.0 mi SE 5.8 mph - N/A   Clear
6:56 PM 35.1 °F 29.3 °F 32.2 °F 89% 30.35 in 10.0 mi SE 6.9 mph - N/A   Clear
7:15 PM 35.6 °F 29.2 °F 32.4 °F 88% 30.34 in 10.0 mi SE 8.1 mph - N/A   Clear
7:35 PM 35.6 °F 28.6 °F 32.2 °F 87% 30.33 in 10.0 mi SE 9.2 mph - N/A   Clear
7:55 PM 35.6 °F 28.6 °F 32.0 °F 87% 30.32 in 10.0 mi SE 9.2 mph - N/A   Clear
8:15 PM 35.8 °F 28.3 °F 32.0 °F 86% 30.32 in 10.0 mi SSE 10.4 mph 16.1 mph N/A   Clear
8:36 PM 36.0 °F 28.5 °F 32.0 °F 86% 30.31 in 10.0 mi SSE 10.4 mph - N/A   Clear
8:55 PM 36.0 °F 28.5 °F 32.0 °F 86% 30.31 in 10.0 mi SSE 10.4 mph 17.3 mph N/A   Clear
9:15 PM 36.1 °F 28.7 °F 32.0 °F 85% 30.30 in 10.0 mi SE 10.4 mph 17.3 mph N/A   Clear
9:36 PM 36.1 °F 27.7 °F 32.2 °F 86% 30.28 in 10.0 mi SSE 12.7 mph 18.4 mph N/A   Clear
9:55 PM 36.3 °F 28.0 °F 32.7 °F 87% 30.27 in 10.0 mi SSE 12.7 mph 21.9 mph N/A   Clear
10:15 PM 36.5 °F 27.8 °F 32.9 °F 87% 30.25 in 10.0 mi SSE 13.8 mph 20.7 mph N/A   Clear
10:36 PM 36.7 °F 28.4 °F 33.4 °F 88% 30.24 in 10.0 mi SSE 12.7 mph 20.7 mph N/A   Clear
10:55 PM 36.7 °F 28.4 °F 33.1 °F 87% 30.22 in 10.0 mi SSE 12.7 mph 21.9 mph N/A   Clear
11:15 PM 36.7 °F 29.4 °F 33.4 °F 88% 30.22 in 10.0 mi SSE 10.4 mph 20.7 mph N/A   Clear
11:36 PM 36.9 °F 29.6 °F 33.8 °F 89% 30.20 in 10.0 mi SE 10.4 mph 16.1 mph N/A   Mostly Cloudy
11:55 PM 36.7 °F 29.4 °F 33.4 °F 88% 30.18 in 10.0 mi SE 10.4 mph 23.0 mph N/A   Mostly Cloudy